Location: Bermeries
(50.2863°N, 3.7551°E)
Time: 13:23:55
(UTC+00:00)

FENGYUN 3A - Pass Details

Date: 23 May 2024
Orbit: 821 x 835 km, 98.6° (Epoch: 16 June)

Event Time Altitude Azimuth Distance (km) Brightness Sun altitude
Rises 02:14:15 0° 15° (NNE) 3,373 8.3 -11.5°
Reaches altitude 10° 02:16:37 10° 17° (NNE) 2,434 7.4 -11.3°
Maximum altitude 02:22:01 80° 104° (ESE) 842 3.8 -10.7°
Drops below altitude 10° 02:27:22 10° 192° (SSW) 2,414 5.5 -10.2°
Enters shadow 02:27:28 10° 192° (SSW) 2,451 5.6 -10.2°
